DW5735 Weather Reports


Display with metric or nautical units.
time (UTC)temp
F
wind
direction
speed
MPH
gust
MPH
rain 1hr
in
rain 24hr
in
rain mn
in
humidity
%
barometer
mb
20260831103054 56 82 0.0 0.0 0.00 0.01 0.00 88 1015.6
20260831102837 57 75 0.0 0.0 0.00 0.04 0.00 87 1016.5
20260831102356 57 62 0.0 0.0 0.00 0.04 0.00 87 1016.4
20260831101834 57 51 0.0 0.0 0.00 0.04 0.00 87 1016.3
20260831101613 57 51 0.0 0.0 0.00 0.01 0.00 86 1015.5
20260831101334 57 51 0.0 0.0 0.00 0.04 0.00 86 1016.3
20260831100844 57 71 0.0 0.0 0.00 0.04 0.00 86 1016.3
20260831100320 57 54 0.0 0.0 0.00 0.04 0.00 87 1016.4
20260831100110 57 94 0.0 0.0 0.00 0.01 0.00 87 1015.5
20260831095845 57 72 0.0 0.0 0.00 0.04 0.00 86 1016.3
20260831095335 57 51 0.0 0.0 0.00 0.04 0.00 86 1016.2
20260831094841 57 50 0.0 0.0 0.00 0.04 0.00 85 1016.3
20260831094516 57 54 0.0 0.0 0.00 0.01 0.00 86 1015.5
20260831094339 57 56 0.0 0.0 0.00 0.04 0.00 86 1016.4
20260831093826 57 76 0.0 0.0 0.00 0.04 0.00 85 1016.4
20260831093321 57 91 0.0 0.0 0.00 0.04 0.00 84 1016.4
20260831093105 57 78 0.0 0.0 0.00 0.01 0.00 84 1015.6
20260831092833 58 89 0.0 0.0 0.00 0.04 0.00 84 1016.4
20260831092358 58 71 0.0 0.0 0.00 0.04 0.00 84 1016.4
20260831091827 58 56 0.0 0.0 0.00 0.04 0.00 83 1016.5
20260831091344 58 53 0.0 0.0 0.00 0.04 0.00 84 1016.5
20260831090832 58 82 0.0 0.0 0.00 0.04 0.00 84 1016.6
20260831090323 59 109 0.0 0.0 0.00 0.04 0.00 83 1016.6
20260831090112 59 108 0.0 0.0 0.00 0.01 0.00 83 1015.8
20260831085839 59 108 0.0 0.0 0.00 0.04 0.00 83 1016.5
20260831085328 60 110 0.0 0.0 0.00 0.04 0.00 82 1016.6
20260831084854 60 110 0.0 0.0 0.00 0.04 0.00 82 1016.5
20260831084608 59 110 0.0 0.0 0.00 0.01 0.00 82 1015.8
20260831084356 60 110 0.0 0.0 0.00 0.04 0.00 82 1016.6
20260831083844 60 108 0.0 0.0 0.00 0.04 0.00 82 1016.7
20260831083336 60 83 0.0 0.0 0.00 0.04 0.00 83 1016.6
20260831083110 60 82 0.0 0.0 0.00 0.01 0.00 82 1015.9
20260831082817 60 82 0.0 0.0 0.00 0.04 0.00 83 1016.6
20260831082339 61 101 0.0 0.0 0.00 0.04 0.00 81 1016.6
20260831081856 61 39 0.0 0.0 0.00 0.04 0.00 81 1016.6
20260831081609 60 346 0.0 0.0 0.00 0.01 0.00 81 1015.9
20260831081327 60 11 0.0 0.0 0.00 0.04 0.00 82 1016.7
20260831080845 60 336 0.0 0.0 0.00 0.04 0.00 84 1016.7
20260831080339 60 81 0.0 0.0 0.00 0.04 0.00 84 1016.7
20260831080125 59 81 0.0 0.0 0.00 0.01 0.00 84 1016.0
20260831075817 60 81 0.0 0.0 0.00 0.04 0.00 84 1016.7
20260831075331 60 79 0.0 0.0 0.00 0.04 0.00 83 1016.8
20260831074835 60 91 0.0 0.0 0.00 0.04 0.00 83 1016.8
20260831074602 59 96 0.0 0.0 0.00 0.01 0.00 83 1016.1
20260831074319 60 91 0.0 0.0 0.00 0.04 0.00 84 1016.8
20260831073819 60 77 0.0 0.0 0.00 0.04 0.00 83 1016.9
20260831073325 60 47 0.0 0.0 0.00 0.04 0.00 83 1016.9
20260831073104 59 46 0.0 0.0 0.00 0.01 0.00 83 1016.3
20260831072838 60 46 0.0 0.0 0.00 0.04 0.00 83 1016.9
20260831072344 60 47 0.0 0.0 0.00 0.04 0.00 83 1017.0
20260831071853 60 72 0.0 0.0 0.00 0.04 0.00 83 1016.9
20260831071616 59 72 0.0 0.0 0.00 0.01 0.00 83 1016.4
20260831071356 60 72 0.0 0.0 0.00 0.04 0.00 83 1017.0
20260831070832 60 83 0.0 0.0 0.00 0.04 0.00 83 1017.0
20260831070327 60 48 0.0 0.0 0.00 0.04 0.00 83 1017.0
20260831065825 60 76 0.0 0.0 0.00 0.04 0.01 82 1017.0
20260831065336 60 77 0.0 0.0 0.00 0.04 0.01 82 1017.0
20260831064818 60 74 0.0 0.0 0.00 0.04 0.01 82 1017.0
20260831064601 59 73 0.0 0.0 0.00 0.01 0.01 82 1016.4
20260831064317 60 74 0.0 0.0 0.00 0.04 0.01 82 1017.0
20260831063819 60 79 0.0 0.0 0.00 0.04 0.01 82 1017.0
20260831063327 60 86 0.0 0.0 0.00 0.04 0.01 81 1017.0
20260831063057 59 81 0.0 0.0 0.00 0.01 0.01 81 1016.3
20260831062825 59 82 0.0 0.0 0.00 0.04 0.01 81 1016.9
20260831062333 59 81 0.0 0.0 0.00 0.04 0.01 82 1016.9
20260831061831 59 82 0.0 0.0 0.00 0.04 0.01 82 1016.9
20260831061611 59 81 0.0 0.0 0.00 0.01 0.01 82 1016.3
20260831061320 59 74 0.0 0.0 0.00 0.04 0.01 82 1016.9
20260831060836 59 89 0.0 0.0 0.00 0.04 0.01 83 1016.9
20260831060335 59 88 0.0 0.0 0.00 0.04 0.01 83 1016.9
20260831060110 58 101 0.0 0.0 0.00 0.01 0.01 83 1016.3
20260831055341 59 77 0.0 0.0 0.00 0.04 0.01 82 1017.0
20260831054831 59 86 0.0 0.0 0.00 0.04 0.01 81 1016.9
20260831054601 58 86 0.0 0.0 0.00 0.01 0.01 82 1016.3
20260831054339 59 86 0.0 0.0 0.00 0.04 0.01 81 1017.0
20260831053828 59 86 0.0 0.0 0.00 0.04 0.01 81 1016.9
20260831053325 59 91 0.0 0.0 0.00 0.04 0.01 81 1016.9
20260831053005 58 91 0.0 0.0 0.00 0.01 0.01 81 1016.3
20260831052829 59 83 0.0 0.0 0.00 0.04 0.01 81 1016.9
20260831052329 59 91 0.0 0.0 0.00 0.04 0.01 80 1016.9
20260831051845 59 91 0.0 0.0 0.00 0.04 0.01 80 1016.9
20260831051518 59 88 0.0 0.0 0.00 0.01 0.01 80 1016.2
20260831051329 59 87 0.0 0.0 0.00 0.04 0.01 80 1016.9
20260831050832 60 90 0.0 0.0 0.00 0.04 0.01 79 1016.8
20260831050330 60 49 0.0 0.0 0.00 0.04 0.01 79 1016.8
20260831050129 59 50 0.0 0.0 0.00 0.01 0.01 79 1016.1
20260831045824 60 49 0.0 0.0 0.00 0.04 0.01 79 1016.7
20260831045335 60 48 0.0 0.0 0.00 0.04 0.01 78 1016.7
20260831044846 60 79 0.0 0.0 0.00 0.04 0.01 77 1016.7
20260831044600 60 80 0.0 0.0 0.00 0.01 0.01 77 1016.1
20260831044342 61 91 0.0 0.0 0.00 0.04 0.01 77 1016.7
20260831043825 61 97 0.0 0.0 0.00 0.04 0.01 76 1016.6
20260831043332 61 94 0.0 0.0 0.00 0.04 0.01 76 1016.6
20260831043111 61 85 0.0 0.0 0.00 0.01 0.01 77 1016.0
20260831042827 62 15 0.0 0.0 0.00 0.04 0.01 78 1016.6
20260831042336 61 46 0.0 0.0 0.00 0.04 0.01 74 1016.5
20260831041818 62 83 0.0 2.0 0.00 0.04 0.01 74 1016.6
20260831041620 61 67 0.0 2.0 0.00 0.01 0.01 74 1015.9
20260831041346 62 79 0.0 2.0 0.00 0.04 0.01 73 1016.5
20260831040828 62 70 0.0 0.0 0.00 0.04 0.01 73 1016.5
20260831040338 62 86 0.0 0.0 0.00 0.04 0.01 73 1016.4
20260831040110 61 46 0.0 0.0 0.00 0.01 0.01 73 1015.8
20260831035328 62 39 0.0 0.0 0.00 0.04 0.01 72 1016.4
20260831034832 62 46 0.0 5.0 0.00 0.04 0.01 73 1016.4
20260831034601 62 62 0.0 5.0 0.00 0.01 0.01 71 1015.6
20260831034336 63 82 1.0 6.0 0.00 0.04 0.01 71 1016.4
20260831033842 63 68 1.0 6.0 0.00 0.04 0.01 71 1016.4
20260831033340 63 80 0.0 9.0 0.00 0.04 0.01 72 1016.3
20260831033111 63 68 0.0 9.0 0.00 0.01 0.01 72 1015.5
20260831032828 63 46 1.0 9.0 0.00 0.04 0.01 70 1016.2
20260831032319 63 36 2.0 6.0 0.00 0.04 0.01 70 1016.1
20260831031819 63 25 0.0 6.0 0.00 0.04 0.01 71 1016.0
20260831031607 63 43 0.0 6.0 0.00 0.01 0.01 70 1015.3
20260831031330 64 44 0.0 6.0 0.00 0.04 0.01 71 1015.9
20260831030331 64 44 5.0 10.0 0.00 0.04 0.01 72 1015.7
20260831030053 64 17 4.0 9.0 0.00 0.01 0.01 74 1015.0
20260831025838 64 30 6.0 9.0 0.00 0.04 0.01 72 1015.6
20260831024835 64 23 6.0 9.0 0.00 0.04 0.01 69 1015.5
20260831024620 64 30 6.0 9.0 0.00 0.01 0.01 70 1014.9
20260831024332 64 34 4.0 7.0 0.00 0.04 0.01 70 1015.5
20260831023817 65 46 0.0 6.0 0.00 0.04 0.01 69 1015.6
20260831023341 65 29 0.0 1.0 0.00 0.04 0.01 69 1015.6
20260831023018 64 28 0.0 1.0 0.00 0.01 0.01 69 1014.9
20260831022843 65 47 0.0 1.0 0.00 0.04 0.01 68 1015.5
20260831022318 65 46 0.0 1.0 0.00 0.04 0.01 69 1015.6
20260831021831 65 27 0.0 3.0 0.00 0.04 0.01 69 1015.6
20260831021555 65 34 0.0 3.0 0.00 0.01 0.01 69 1015.0
20260831021333 65 42 0.0 0.0 0.00 0.04 0.01 69 1015.7
20260831020820 65 43 0.0 1.0 0.00 0.04 0.01 68 1015.7
20260831020322 65 58 0.0 2.0 0.00 0.04 0.01 68 1015.8
20260831020111 65 34 0.0 4.0 0.00 0.01 0.01 68 1015.1
20260831015828 66 34 0.0 4.0 0.00 0.04 0.01 68 1015.8
20260831015325 66 43 0.0 4.0 0.00 0.04 0.01 66 1015.8
20260831014827 66 50 0.0 0.0 0.00 0.04 0.01 66 1015.8
20260831014604 65 48 0.0 0.0 0.00 0.01 0.01 67 1015.1
20260831014322 66 63 0.0 0.0 0.00 0.04 0.01 66 1015.8
20260831013825 66 84 0.0 0.0 0.00 0.04 0.01 66 1015.8
20260831013328 66 87 0.0 0.0 0.00 0.04 0.01 65 1015.8
20260831013103 66 75 0.0 0.0 0.00 0.01 0.01 65 1015.2
20260831012856 66 96 0.0 0.0 0.00 0.04 0.01 65 1015.8
20260831012332 66 110 0.0 0.0 0.00 0.04 0.01 64 1015.8
20260831011818 66 106 0.0 0.0 0.00 0.04 0.01 64 1015.9
20260831011616 66 85 0.0 0.0 0.00 0.01 0.01 64 1015.3
20260831011344 66 64 0.0 0.0 0.00 0.04 0.01 64 1015.9
20260831010836 66 68 0.0 0.0 0.00 0.04 0.01 63 1015.9
20260831010319 66 75 0.0 0.0 0.00 0.04 0.01 63 1016.0
20260831010109 66 70 0.0 0.0 0.00 0.01 0.01 63 1015.3
20260831005833 66 62 0.0 0.0 0.00 0.04 0.01 63 1015.9
20260831005321 66 38 0.0 0.0 0.00 0.04 0.01 64 1015.8
20260831004834 66 60 0.0 0.0 0.00 0.04 0.01 63 1015.8
20260831004559 66 77 0.0 0.0 0.00 0.01 0.01 64 1015.2
20260831004317 66 56 0.0 0.0 0.00 0.04 0.01 64 1015.7
20260831003842 66 30 0.0 0.0 0.00 0.04 0.01 64 1015.7
20260831003341 66 27 0.0 0.0 0.00 0.04 0.01 64 1015.6
20260831003103 66 31 0.0 0.0 0.00 0.01 0.01 64 1015.1
20260831002816 66 5 0.0 0.0 0.00 0.04 0.01 65 1015.6
20260831002328 66 60 0.0 0.0 0.00 0.04 0.01 64 1015.6
20260831001900 66 99 0.0 0.0 0.00 0.04 0.01 64 1015.7
20260831001516 66 110 0.0 0.0 0.00 0.01 0.01 63 1015.1
20260831001333 66 79 0.0 0.0 0.00 0.04 0.01 63 1015.7
20260831000837 67 89 0.0 0.0 0.00 0.04 0.01 64 1015.8
20260831000322 67 57 0.0 0.0 0.00 0.04 0.01 62 1015.8
20260831000114 66 76 0.0 0.0 0.00 0.01 0.01 61 1015.2
20260830235834 67 77 0.0 0.0 0.00 0.04 0.01 61 1015.8
20260830235325 67 61 0.0 0.0 0.00 0.04 0.01 60 1015.8
20260830234836 67 256 0.0 0.0 0.00 0.04 0.01 58 1015.8
20260830234620 67 256 0.0 0.0 0.00 0.01 0.01 60 1015.3
20260830234321 67 257 0.0 0.0 0.00 0.04 0.01 60 1015.8
20260830233832 67 271 0.0 0.0 0.00 0.04 0.01 59 1015.8
20260830233324 67 247 0.0 0.0 0.00 0.04 0.01 60 1015.8
20260830233102 66 204 0.0 0.0 0.00 0.01 0.01 59 1015.2
20260830232822 67 205 0.0 0.0 0.00 0.04 0.01 60 1015.9
20260830232341 67 212 0.0 0.0 0.00 0.04 0.01 60 1015.8
20260830231817 67 203 0.0 0.0 0.00 0.04 0.01 58 1015.8
20260830231322 67 219 0.0 0.0 0.00 0.04 0.01 59 1015.8
20260830230827 67 235 0.0 1.0 0.00 0.04 0.01 59 1015.8
20260830230326 67 228 0.0 1.0 0.00 0.04 0.01 59 1015.8
20260830230055 67 236 0.0 1.0 0.00 0.01 0.01 60 1015.3
20260830225851 67 190 0.0 1.0 0.00 0.08 0.01 59 1015.8
20260830225317 67 242 0.0 1.0 0.00 0.08 0.01 59 1015.8
20260830224817 68 206 0.0 0.0 0.00 0.08 0.01 58 1015.8
20260830224557 67 259 0.0 0.0 0.00 0.02 0.01 60 1015.3
20260830224319 68 243 0.0 0.0 0.00 0.08 0.01 58 1015.8
20260830223900 68 257 0.0 0.0 0.00 0.08 0.01 58 1015.8
20260830223348 68 241 0.0 0.0 0.00 0.08 0.01 58 1015.9
20260830223110 67 239 0.0 0.0 0.00 0.02 0.01 59 1015.3
20260830222829 68 239 0.0 0.0 0.00 0.08 0.01 59 1015.9
20260830222316 67 287 0.0 0.0 0.00 0.08 0.01 61 1015.9
20260830221829 66 287 0.0 0.0 0.00 0.08 0.01 60 1015.9
20260830221508 66 280 0.0 0.0 0.00 0.02 0.01 60 1015.5
20260830221328 66 280 0.0 0.0 0.00 0.08 0.01 62 1016.0
20260830220835 66 285 0.0 0.0 0.00 0.08 0.01 61 1015.9
20260830220317 66 283 0.0 0.0 0.00 0.08 0.01 61 1016.0
20260830220016 66 284 0.0 0.0 0.00 0.02 0.01 62 1015.6
20260830215839 66 228 0.0 0.0 0.00 0.12 0.01 62 1016.1
20260830215330 66 257 0.0 0.0 0.00 0.12 0.01 62 1016.0
20260830214901 66 242 0.0 3.0 0.00 0.12 0.01 61 1016.1
20260830214602 66 260 0.0 3.0 0.00 0.03 0.01 64 1015.6
20260830214340 66 239 0.0 3.0 0.00 0.12 0.01 62 1016.1
20260830213837 66 250 0.0 2.0 0.00 0.12 0.01 61 1016.1
20260830213335 66 264 0.0 0.0 0.00 0.12 0.01 61 1016.1
20260830213100 66 277 0.0 0.0 0.00 0.03 0.01 61 1015.7
20260830212838 67 255 0.0 0.0 0.00 0.12 0.01 61 1016.1
20260830212329 66 262 0.0 0.0 0.00 0.12 0.01 61 1016.1
20260830211854 66 287 0.0 0.0 0.00 0.12 0.01 62 1016.1
20260830211624 65 286 0.0 0.0 0.00 0.03 0.01 62 1015.7
20260830211318 66 271 0.0 0.0 0.00 0.12 0.01 62 1016.1
20260830210830 66 251 0.0 0.0 0.00 0.12 0.01 63 1016.1
20260830210331 65 94 0.0 0.0 0.00 0.12 0.01 64 1016.1
20260830205839 65 33 0.0 0.0 0.00 0.35 0.01 63 1016.1
20260830205330 65 353 0.0 0.0 0.00 0.35 0.01 64 1016.0
20260830204849 64 26 0.0 0.0 0.04 0.35 0.01 65 1016.0
20260830204621 63 25 0.0 0.0 0.01 0.09 0.01 65 1015.7
20260830204325 64 34 0.0 5.0 0.04 0.35 0.01 65 1016.1
20260830203846 64 31 0.0 5.0 0.04 0.35 0.01 67 1016.0
20260830203317 64 32 0.0 5.0 0.04 0.35 0.01 66 1016.1
20260830203102 63 34 2.0 5.0 0.01 0.09 0.01 68 1015.7
20260830202321 64 19 0.0 0.0 0.04 0.35 0.01 65 1016.1
20260830201835 64 63 0.0 0.0 0.04 0.35 0.01 65 1016.2
20260830201515 63 39 0.0 0.0 0.01 0.09 0.01 66 1015.7
20260830201335 64 17 0.0 0.0 0.04 0.35 0.01 66 1016.2
20260830200848 63 79 0.0 0.0 0.04 0.35 0.01 64 1016.2
20260830200336 63 86 0.0 0.0 0.04 0.35 0.01 69 1016.3
20260830200057 63 58 0.0 0.0 0.01 0.09 0.01 67 1015.8
20260830195834 63 51 0.0 0.0 0.04 1.06 0.01 65 1016.2
20260830195319 64 43 0.0 0.0 0.04 1.06 0.01 65 1016.2
20260830194819 64 26 0.0 0.0 0.00 1.02 0.00 65 1016.1
20260830194620 63 345 0.0 0.0 0.00 0.26 0.00 66 1015.7
20260830194322 64 354 0.0 0.0 0.00 1.02 0.00 64 1016.1
20260830193827 64 302 0.0 0.0 0.00 1.02 0.00 66 1016.1
20260830193339 63 302 0.0 0.0 0.00 1.02 0.00 65 1016.1
20260830193107 63 302 0.0 0.0 0.00 0.26 0.00 65 1015.7
20260830192825 63 287 0.0 0.0 0.00 1.02 0.00 66 1016.1
20260830192325 64 280 0.0 0.0 0.00 1.02 0.00 67 1016.1
20260830191838 64 225 0.0 0.0 0.00 1.02 0.00 64 1016.1
20260830191515 63 165 0.0 0.0 0.00 0.26 0.00 65 1015.8
20260830190842 64 264 0.0 0.0 0.00 1.02 0.00 60 1016.2
20260830190332 64 252 0.0 0.0 0.00 1.02 0.00 60 1016.1
20260830190124 63 278 0.0 0.0 0.00 0.26 0.00 62 1015.7
20260830185824 64 282 0.0 0.0 0.00 1.61 0.00 61 1016.0
20260830185337 64 291 0.0 3.0 0.00 1.61 0.00 62 1016.1
20260830184836 64 284 0.0 3.0 0.00 1.61 0.00 62 1016.1
20260830184321 64 276 0.0 0.0 0.00 1.61 0.00 61 1016.1
20260830183332 64 273 0.0 0.0 0.00 1.61 0.00 63 1016.1
20260830183018 64 283 0.0 7.0 0.00 0.41 0.00 61 1015.7
20260830182843 64 285 0.0 7.0 0.00 1.61 0.00 59 1016.1
20260830182351 64 239 4.0 5.0 0.00 1.61 0.00 62 1016.1
20260830181823 64 226 0.0 0.0 0.00 1.61 0.00 63 1016.2
20260830181509 63 236 0.0 0.0 0.00 0.41 0.00 62 1015.8
20260830181333 64 255 0.0 0.0 0.00 1.61 0.00 63 1016.1
20260830180840 64 257 0.0 0.0 0.00 1.61 0.00 62 1016.1
20260830180326 64 257 0.0 0.0 0.00 1.61 0.00 64 1016.1
20260830180116 64 214 0.0 0.0 0.00 0.41 0.00 65 1015.7
20260830175823 64 133 0.0 0.0 0.00 2.48 0.00 65 1016.1
20260830175332 64 133 0.0 0.0 0.00 2.48 0.00 65 1016.1
20260830174826 64 220 0.0 0.0 0.00 2.48 0.00 65 1016.0
20260830174612 63 249 0.0 0.0 0.00 0.63 0.00 68 1015.7
20260830174330 63 249 0.0 0.0 0.00 2.48 0.00 68 1016.0
20260830173819 63 248 0.0 3.0 0.00 2.48 0.00 70 1015.9
20260830173332 63 247 0.0 3.0 0.00 2.48 0.00 69 1016.0
20260830173144 63 226 0.0 3.0 0.00 0.63 0.00 67 1015.6
20260830172820 63 225 0.0 0.0 0.00 2.48 0.00 67 1015.9
20260830172329 63 226 0.0 0.0 0.00 2.48 0.00 66 1015.9
20260830171853 63 251 0.0 0.0 0.00 2.48 0.00 70 1015.9
20260830171613 62 231 0.0 0.0 0.00 0.63 0.00 67 1015.5
20260830171321 62 236 0.0 0.0 0.00 2.48 0.00 68 1015.8
20260830170828 62 266 0.0 0.0 0.00 2.48 0.00 70 1015.8
20260830170327 62 236 0.0 0.0 0.00 2.48 0.00 72 1015.8
20260830170056 62 269 0.0 0.0 0.00 0.63 0.00 72 1015.5
20260830165827 62 242 0.0 0.0 0.00 2.99 0.00 73 1015.8
20260830165321 62 246 0.0 0.0 0.00 2.99 0.00 72 1015.7
20260830164827 62 259 0.0 0.0 0.00 2.99 0.00 73 1015.8
20260830164557 61 256 0.0 0.0 0.00 0.76 0.00 74 1015.5
20260830164334 61 231 0.0 0.0 0.00 2.99 0.00 74 1015.8
20260830163841 61 269 0.0 0.0 0.00 2.99 0.00 74 1015.8
20260830163335 61 282 0.0 0.0 0.00 2.99 0.00 73 1015.8
20260830163101 61 291 0.0 0.0 0.00 0.76 0.00 73 1015.4
20260830162835 61 287 0.0 0.0 0.00 2.99 0.00 72 1015.7
20260830162319 61 269 0.0 0.0 0.00 2.99 0.00 72 1015.6
20260830161834 61 241 0.0 0.0 0.00 2.99 0.00 73 1015.7
20260830161609 61 245 0.0 0.0 0.00 0.76 0.00 74 1015.4
20260830161327 61 200 0.0 0.0 0.00 2.99 0.00 73 1015.8
20260830160843 61 283 0.0 0.0 0.00 2.99 0.00 75 1015.7
20260830160327 60 262 0.0 0.0 0.00 2.99 0.00 76 1015.6
20260830160007 60 90 0.0 0.0 0.00 0.76 0.00 75 1015.3
20260830155825 60 91 0.0 0.0 0.00 3.54 0.00 75 1015.5
20260830155335 59 31 0.0 0.0 0.00 3.54 0.00 77 1015.6
20260830154820 59 32 0.0 0.0 0.00 3.54 0.00 77 1015.5
20260830154552 58 31 0.0 0.0 0.00 0.90 0.00 78 1015.2
20260830154336 59 93 0.0 0.0 0.00 3.54 0.00 77 1015.5
20260830153828 59 41 0.0 0.0 0.00 3.54 0.00 78 1015.5
20260830153338 59 43 0.0 0.0 0.00 3.54 0.00 77 1015.5
20260830153055 58 71 0.0 0.0 0.00 0.90 0.00 77 1015.2
20260830152854 58 71 0.0 0.0 0.00 3.54 0.00 77 1015.5
20260830152321 58 71 0.0 0.0 0.00 3.54 0.00 77 1015.5
20260830151841 58 92 0.0 0.0 0.00 3.54 0.00 79 1015.4
20260830151624 57 92 0.0 0.0 0.00 0.90 0.00 79 1015.1
20260830151324 58 79 0.0 0.0 0.00 3.54 0.00 78 1015.4
20260830150826 58 58 0.0 0.0 0.00 3.54 0.00 80 1015.4
20260830150326 57 40 0.0 0.0 0.00 3.54 0.00 82 1015.3
20260830145838 57 46 0.0 0.0 0.00 3.54 0.00 83 1015.3
20260830145331 57 46 0.0 0.0 0.00 3.54 0.00 82 1015.3
20260830144841 57 46 0.0 0.0 0.00 3.54 0.00 82 1015.2
20260830144604 56 79 0.0 0.0 0.00 0.90 0.00 82 1014.8
20260830144335 57 78 0.0 0.0 0.00 3.54 0.00 82 1015.1
20260830143844 57 53 0.0 0.0 0.00 3.54 0.00 81 1015.1
20260830143318 57 23 0.0 0.0 0.00 3.54 0.00 82 1015.1
20260830143110 57 44 0.0 0.0 0.00 0.90 0.00 80 1014.8
20260830142822 57 36 0.0 0.0 0.00 3.54 0.00 80 1015.1
20260830142323 57 51 0.0 0.0 0.00 3.54 0.00 82 1015.1
20260830141830 57 77 0.0 0.0 0.00 3.54 0.00 81 1015.1
20260830141602 56 80 0.0 0.0 0.00 0.90 0.00 81 1014.8
20260830141321 56 85 0.0 0.0 0.00 3.54 0.00 83 1015.0
20260830140831 56 34 0.0 0.0 0.00 3.54 0.00 82 1015.0
20260830140341 56 104 0.0 0.0 0.00 3.54 0.00 83 1014.9
20260830140105 55 84 0.0 0.0 0.00 0.90 0.00 84 1014.6
20260830135849 55 50 0.0 0.0 0.00 3.54 0.00 85 1014.8
20260830135340 55 86 0.0 0.0 0.00 3.54 0.00 85 1014.9
20260830134818 54 86 0.0 0.0 0.00 3.54 0.00 85 1014.7
20260830134603 54 86 0.0 0.0 0.00 0.90 0.00 85 1014.4
20260830134319 54 73 0.0 0.0 0.00 3.54 0.00 84 1014.7
20260830133817 54 102 0.0 2.0 0.00 3.54 0.00 85 1014.8
20260830133323 54 91 0.0 6.0 0.00 3.54 0.00 86 1014.7
20260830133117 54 87 0.0 6.0 0.00 0.90 0.00 86 1014.4
20260830132853 55 43 4.0 6.0 0.00 3.54 0.00 86 1014.7
20260830132333 54 26 0.0 0.0 0.00 3.54 0.00 88 1014.6
20260830131845 54 95 0.0 0.0 0.00 3.54 0.00 88 1014.6
20260830131329 54 309 0.0 0.0 0.00 3.54 0.00 89 1014.7
20260830130835 53 99 0.0 0.0 0.00 3.54 0.00 87 1014.5
20260830130341 54 95 0.0 0.0 0.00 3.54 0.00 86 1014.5
20260830130104 53 94 0.0 0.0 0.00 0.90 0.00 86 1014.2
20260830125848 54 95 0.0 0.0 0.00 3.54 0.00 86 1014.5
20260830125330 54 96 0.0 0.0 0.00 3.54 0.00 86 1014.5
20260830124901 54 108 0.0 0.0 0.00 3.54 0.00 86 1014.5
20260830124556 53 85 0.0 0.0 0.00 0.90 0.00 86 1014.2
20260830124331 54 85 0.0 0.0 0.00 3.54 0.00 86 1014.5
20260830123827 54 93 0.0 0.0 0.00 3.54 0.00 86 1014.4
20260830123333 54 68 0.0 0.0 0.00 3.54 0.00 88 1014.4
20260830123104 53 8 0.0 0.0 0.00 0.90 0.00 87 1014.0
20260830122839 54 92 0.0 0.0 0.00 3.54 0.00 86 1014.3
20260830122323 54 84 0.0 0.0 0.00 3.54 0.00 88 1014.3
20260830121825 54 88 0.0 0.0 0.00 3.54 0.00 87 1014.4
20260830121606 53 87 0.0 0.0 0.00 0.90 0.00 86 1013.9
20260830121336 54 125 0.0 0.0 0.00 3.54 0.00 86 1014.4
20260830120840 54 101 0.0 0.0 0.00 3.54 0.00 87 1014.4
20260830120329 54 91 0.0 0.0 0.00 3.54 0.00 85 1014.4
20260830120055 54 90 0.0 0.0 0.00 0.90 0.00 85 1014.0
20260830115839 54 91 0.0 0.0 0.00 3.54 0.00 85 1014.4
20260830115334 54 90 0.0 0.0 0.00 3.54 0.00 86 1014.4
20260830114822 54 90 0.0 0.0 0.00 3.54 0.00 86 1014.4
20260830114618 54 105 0.0 0.0 0.00 0.90 0.00 86 1014.1
20260830114317 54 99 0.0 0.0 0.00 3.54 0.00 87 1014.4
20260830113827 54 105 0.0 0.0 0.00 3.54 0.00 88 1014.3
20260830113325 54 105 0.0 0.0 0.00 3.54 0.00 87 1014.4
20260830113012 53 107 0.0 0.0 0.00 0.90 0.00 86 1013.9
20260830112832 54 104 0.0 0.0 0.00 3.54 0.00 87 1014.3
20260830112323 54 86 0.0 0.0 0.00 3.54 0.00 89 1014.4
20260830111844 54 87 0.0 0.0 0.00 3.54 0.00 87 1014.3
20260830111600 54 87 0.0 0.0 0.00 0.90 0.00 87 1013.9
20260830111346 54 87 0.0 0.0 0.00 3.54 0.00 86 1014.3
20260830110833 55 87 0.0 0.0 0.00 3.54 0.00 86 1014.3
20260830110323 55 88 0.0 0.0 0.00 3.54 0.00 85 1014.3
20260830105820 55 86 0.0 0.0 0.00 3.54 0.00 85 1014.2
20260830105325 56 46 0.0 0.0 0.00 3.54 0.00 86 1014.3
20260830104828 56 79 0.0 0.0 0.00 3.54 0.00 85 1014.3
20260830104601 55 79 0.0 0.0 0.00 0.90 0.00 85 1013.8
20260830104343 56 90 0.0 0.0 0.00 3.54 0.00 85 1014.3
20260830103836 55 100 0.0 0.0 0.00 3.54 0.00 86 1014.3
20260830103346 55 91 0.0 0.0 0.00 3.54 0.00 86 1014.2